| time (UTC) | temp F | wind direction | speed MPH | gust MPH | rain 1hr in | rain 24hr in | rain mn in | humidity % | barometer mb |
| 20260506171216 | 51 | 303 | 4.0 | 7.0 | 0.00 | 0.01 | 0.01 | 53 | 1014.0 |
| 20260506170008 | 51 | 303 | 4.0 | 8.0 | 0.00 | 0.01 | 0.01 | 53 | 1013.9 |
| 20260506165003 | 52 | 306 | 5.0 | 10.0 | 0.00 | 0.01 | 0.01 | 54 | 1014.1 |
| 20260506164003 | 52 | 307 | 5.0 | 10.0 | 0.00 | 0.01 | 0.01 | 56 | 1014.1 |
| 20260506163003 | 53 | 300 | 5.0 | 8.0 | 0.00 | 0.01 | 0.01 | 55 | 1014.0 |
| 20260506162008 | 54 | 310 | 5.0 | 9.0 | 0.00 | 0.01 | 0.01 | 52 | 1014.0 |
| 20260506161008 | 56 | 297 | 5.0 | 8.0 | 0.00 | 0.01 | 0.01 | 48 | 1014.0 |
| 20260506160218 | 57 | 298 | 5.0 | 8.0 | 0.00 | 0.01 | 0.01 | 45 | 1013.9 |
| 20260506155003 | 54 | 306 | 4.0 | 7.0 | 0.00 | 0.01 | 0.01 | 57 | 1014.2 |
| 20260506154008 | 53 | 302 | 5.0 | 10.0 | 0.00 | 0.01 | 0.01 | 53 | 1014.1 |
| 20260506153003 | 55 | 302 | 5.0 | 10.0 | 0.00 | 0.01 | 0.01 | 52 | 1014.2 |
| 20260506152008 | 55 | 305 | 5.0 | 8.0 | 0.00 | 0.01 | 0.01 | 50 | 1014.1 |
| 20260506151003 | 53 | 305 | 5.0 | 9.0 | 0.00 | 0.01 | 0.01 | 53 | 1014.3 |
| 20260506150003 | 56 | 299 | 5.0 | 10.0 | 0.00 | 0.01 | 0.01 | 48 | 1014.2 |
| 20260506145003 | 52 | 306 | 6.0 | 12.0 | 0.00 | 0.01 | 0.01 | 56 | 1014.3 |
| 20260506144008 | 56 | 298 | 5.0 | 9.0 | 0.00 | 0.01 | 0.01 | 52 | 1014.1 |
| 20260506143008 | 54 | 307 | 5.0 | 9.0 | 0.00 | 0.01 | 0.01 | 57 | 1014.3 |
| 20260506142003 | 52 | 307 | 5.0 | 9.0 | 0.00 | 0.01 | 0.01 | 53 | 1014.3 |
| 20260506141003 | 53 | 298 | 5.0 | 9.0 | 0.00 | 0.01 | 0.01 | 57 | 1014.4 |
| 20260506140008 | 55 | 306 | 5.0 | 10.0 | 0.00 | 0.01 | 0.01 | 52 | 1014.4 |
| 20260506135223 | 57 | 302 | 6.0 | 10.0 | 0.00 | 0.01 | 0.01 | 51 | 1014.4 |
| 20260506134003 | 51 | 300 | 5.0 | 9.0 | 0.00 | 0.01 | 0.01 | 58 | 1014.6 |
| 20260506133008 | 52 | 304 | 6.0 | 10.0 | 0.00 | 0.01 | 0.01 | 58 | 1014.8 |
| 20260506132217 | 54 | 304 | 6.0 | 12.0 | 0.00 | 0.01 | 0.01 | 52 | 1014.6 |
| 20260506131008 | 55 | 301 | 6.0 | 10.0 | 0.00 | 0.01 | 0.01 | 53 | 1014.5 |
| 20260506130004 | 56 | 307 | 6.0 | 10.0 | 0.00 | 0.01 | 0.01 | 54 | 1014.6 |
| 20260506125003 | 54 | 309 | 6.0 | 11.0 | 0.00 | 0.01 | 0.01 | 62 | 1014.6 |
| 20260506124004 | 54 | 305 | 6.0 | 10.0 | 0.00 | 0.01 | 0.01 | 55 | 1014.7 |
| 20260506123223 | 54 | 311 | 6.0 | 11.0 | 0.00 | 0.01 | 0.01 | 59 | 1014.6 |
| 20260506122223 | 54 | 299 | 5.0 | 10.0 | 0.00 | 0.01 | 0.01 | 61 | 1014.7 |
| 20260506121008 | 53 | 311 | 6.0 | 12.0 | 0.00 | 0.01 | 0.01 | 59 | 1014.7 |
| 20260506120008 | 53 | 303 | 5.0 | 11.0 | 0.00 | 0.01 | 0.01 | 61 | 1014.9 |
| 20260506115003 | 52 | 310 | 5.0 | 10.0 | 0.00 | 0.01 | 0.01 | 68 | 1014.8 |
| 20260506114003 | 53 | 315 | 5.0 | 10.0 | 0.00 | 0.01 | 0.01 | 62 | 1015.0 |
| 20260506113004 | 50 | 308 | 5.0 | 9.0 | 0.00 | 0.01 | 0.01 | 64 | 1015.0 |
| 20260506112003 | 51 | 312 | 5.0 | 9.0 | 0.00 | 0.01 | 0.01 | 64 | 1014.9 |
| 20260506111008 | 50 | 315 | 5.0 | 10.0 | 0.00 | 0.01 | 0.01 | 67 | 1015.0 |
| 20260506110003 | 49 | 311 | 5.0 | 10.0 | 0.00 | 0.01 | 0.01 | 64 | 1014.9 |
| 20260506105003 | 49 | 308 | 5.0 | 9.0 | 0.00 | 0.01 | 0.01 | 69 | 1014.9 |
| 20260506104008 | 48 | 311 | 5.0 | 9.0 | 0.00 | 0.01 | 0.01 | 73 | 1015.2 |
| 20260506103004 | 47 | 311 | 5.0 | 10.0 | 0.00 | 0.01 | 0.01 | 75 | 1015.1 |
| 20260506102008 | 46 | 308 | 6.0 | 11.0 | 0.00 | 0.01 | 0.01 | 75 | 1015.2 |
| 20260506101003 | 45 | 310 | 6.0 | 9.0 | 0.00 | 0.01 | 0.01 | 76 | 1015.1 |
| 20260506100218 | 44 | 309 | 5.0 | 8.0 | 0.00 | 0.01 | 0.01 | 74 | 1015.1 |
| 20260506095003 | 44 | 305 | 5.0 | 8.0 | 0.00 | 0.01 | 0.01 | 74 | 1015.2 |
| 20260506094008 | 44 | 308 | 5.0 | 8.0 | 0.00 | 0.01 | 0.01 | 77 | 1015.0 |
| 20260506093008 | 44 | 307 | 5.0 | 8.0 | 0.00 | 0.01 | 0.01 | 77 | 1015.0 |
| 20260506092217 | 44 | 307 | 4.0 | 8.0 | 0.00 | 0.01 | 0.01 | 77 | 1015.1 |
| 20260506091222 | 44 | 310 | 4.0 | 8.0 | 0.00 | 0.01 | 0.01 | 78 | 1015.1 |
| 20260506090003 | 44 | 312 | 4.0 | 8.0 | 0.00 | 0.01 | 0.01 | 78 | 1015.1 |
| 20260506085004 | 43 | 307 | 5.0 | 9.0 | 0.00 | 0.01 | 0.01 | 77 | 1015.1 |
| 20260506084003 | 43 | 309 | 5.0 | 10.0 | 0.00 | 0.01 | 0.01 | 77 | 1015.0 |
| 20260506083003 | 43 | 309 | 5.0 | 8.0 | 0.00 | 0.01 | 0.01 | 77 | 1014.9 |
| 20260506082003 | 43 | 305 | 5.0 | 10.0 | 0.00 | 0.01 | 0.01 | 77 | 1014.8 |
| 20260506081008 | 43 | 309 | 5.0 | 11.0 | 0.00 | 0.01 | 0.01 | 77 | 1014.8 |
| 20260506073008 | 41 | 308 | 5.0 | 12.0 | 0.00 | 0.01 | 0.01 | 84 | 1015.0 |
| 20260506072008 | 41 | 314 | 4.0 | 11.0 | 0.00 | 0.01 | 0.01 | 87 | 1014.7 |
| 20260506071008 | 41 | 301 | 4.0 | 8.0 | 0.00 | 0.01 | 0.01 | 88 | 1014.8 |
| 20260506070223 | 40 | 307 | 4.0 | 8.0 | 0.00 | 0.01 | 0.01 | 87 | 1014.8 |
| 20260506062008 | 40 | 305 | 4.0 | 11.0 | 0.00 | 0.01 | 0.01 | 89 | 1014.5 |
| 20260506061003 | 40 | 322 | 4.0 | 9.0 | 0.00 | 0.01 | 0.01 | 89 | 1014.5 |
| 20260506060222 | 40 | 304 | 4.0 | 9.0 | 0.00 | 0.01 | 0.01 | 90 | 1014.4 |
| 20260506051003 | 40 | 309 | 5.0 | 10.0 | 0.00 | 0.01 | 0.01 | 90 | 1014.4 |
| 20260506045003 | 40 | 304 | 4.0 | 10.0 | 0.00 | 0.01 | 0.01 | 90 | 1014.4 |
| 20260506044003 | 40 | 310 | 4.0 | 8.0 | 0.00 | 0.01 | 0.01 | 90 | 1014.3 |
| 20260506043003 | 40 | 297 | 3.0 | 7.0 | 0.00 | 0.01 | 0.01 | 90 | 1014.5 |
| 20260506042008 | 40 | 304 | 4.0 | 10.0 | 0.00 | 0.01 | 0.01 | 90 | 1014.3 |
| 20260506041008 | 40 | 282 | 4.0 | 11.0 | 0.00 | 0.01 | 0.01 | 90 | 1014.3 |
| 20260506040218 | 40 | 294 | 4.0 | 10.0 | 0.00 | 0.01 | 0.01 | 90 | 1014.4 |
| 20260506035003 | 40 | 290 | 4.0 | 9.0 | 0.00 | 0.01 | 0.01 | 90 | 1014.2 |
| 20260506034217 | 40 | 312 | 5.0 | 15.0 | 0.00 | 0.01 | 0.01 | 89 | 1014.4 |
| 20260506033008 | 40 | 340 | 5.0 | 10.0 | 0.00 | 0.01 | 0.01 | 89 | 1014.5 |
| 20260506032003 | 40 | 334 | 4.0 | 10.0 | 0.00 | 0.01 | 0.01 | 89 | 1014.4 |
| 20260506031003 | 40 | 320 | 4.0 | 11.0 | 0.00 | 0.01 | 0.01 | 89 | 1014.6 |
| 20260506030008 | 40 | 302 | 4.0 | 17.0 | 0.00 | 0.01 | 0.01 | 89 | 1014.6 |
| 20260506025003 | 40 | 312 | 4.0 | 14.0 | 0.00 | 0.01 | 0.01 | 90 | 1014.7 |
| 20260506024217 | 40 | 336 | 6.0 | 19.0 | 0.00 | 0.01 | 0.01 | 90 | 1014.8 |
| 20260506023003 | 40 | 310 | 5.0 | 16.0 | 0.00 | 0.01 | 0.01 | 91 | 1014.6 |
| 20260506022003 | 40 | 329 | 4.0 | 8.0 | 0.00 | 0.01 | 0.01 | 92 | 1014.6 |
| 20260506021217 | 41 | 295 | 3.0 | 10.0 | 0.00 | 0.01 | 0.01 | 92 | 1014.3 |
| 20260506020223 | 41 | 289 | 2.0 | 6.0 | 0.00 | 0.01 | 0.01 | 93 | 1014.5 |
| 20260506015223 | 41 | 320 | 4.0 | 8.0 | 0.00 | 0.01 | 0.01 | 93 | 1014.5 |
| 20260506014216 | 41 | 320 | 3.0 | 6.0 | 0.00 | 0.01 | 0.01 | 95 | 1014.6 |
| 20260506013216 | 42 | 315 | 3.0 | 8.0 | 0.00 | 0.01 | 0.01 | 96 | 1014.6 |
| 20260506012003 | 42 | 314 | 3.0 | 7.0 | 0.00 | 0.01 | 0.01 | 97 | 1014.7 |
| 20260506011008 | 43 | 325 | 3.0 | 6.0 | 0.00 | 0.01 | 0.01 | 97 | 1014.8 |
| 20260506010003 | 43 | 324 | 3.0 | 6.0 | 0.00 | 0.01 | 0.01 | 97 | 1014.6 |
| 20260506005222 | 43 | 323 | 3.0 | 6.0 | 0.00 | 0.01 | 0.01 | 97 | 1014.7 |
| 20260506004008 | 43 | 315 | 3.0 | 7.0 | 0.00 | 0.01 | 0.01 | 97 | 1014.6 |
| 20260506003008 | 43 | 320 | 3.0 | 7.0 | 0.01 | 0.01 | 0.01 | 96 | 1014.9 |
| 20260506002003 | 43 | 317 | 3.0 | 7.0 | 0.01 | 0.01 | 0.01 | 96 | 1015.0 |
| 20260506001008 | 43 | 317 | 4.0 | 9.0 | 0.01 | 0.01 | 0.01 | 96 | 1014.7 |
| 20260506000222 | 43 | 317 | 4.0 | 7.0 | 0.01 | 0.01 | 0.01 | 96 | 1014.6 |
| 20260505235008 | 43 | 321 | 3.0 | 7.0 | 0.01 | 0.01 | 0.01 | 96 | 1014.6 |
| 20260505234218 | 43 | 321 | 4.0 | 8.0 | 0.01 | 0.01 | 0.01 | 95 | 1014.8 |
| 20260505233003 | 44 | 318 | 4.0 | 8.0 | 0.00 | 0.00 | 0.00 | 95 | 1014.8 |
| 20260505232222 | 44 | 319 | 4.0 | 9.0 | 0.00 | 0.00 | 0.00 | 94 | 1014.9 |
| 20260505231003 | 44 | 328 | 4.0 | 8.0 | 0.00 | 0.00 | 0.00 | 91 | 1014.8 |
| 20260505230008 | 44 | 322 | 4.0 | 7.0 | 0.00 | 0.00 | 0.00 | 89 | 1014.6 |
| 20260505225008 | 45 | 322 | 4.0 | 10.0 | 0.00 | 0.00 | 0.00 | 86 | 1014.5 |
| 20260505224008 | 45 | 331 | 4.0 | 8.0 | 0.00 | 0.00 | 0.00 | 84 | 1014.7 |
| 20260505223008 | 45 | 336 | 4.0 | 9.0 | 0.00 | 0.00 | 0.00 | 84 | 1014.6 |
| 20260505222003 | 45 | 339 | 4.0 | 8.0 | 0.00 | 0.00 | 0.00 | 84 | 1014.6 |
| 20260505221003 | 45 | 345 | 4.0 | 8.0 | 0.00 | 0.00 | 0.00 | 83 | 1014.7 |
| 20260505220008 | 45 | 341 | 4.0 | 7.0 | 0.00 | 0.00 | 0.00 | 83 | 1014.7 |
| 20260505215003 | 45 | 341 | 4.0 | 8.0 | 0.00 | 0.00 | 0.00 | 83 | 1014.6 |
| 20260505214008 | 45 | 337 | 4.0 | 8.0 | 0.00 | 0.00 | 0.00 | 83 | 1014.7 |
| 20260505213224 | 45 | 336 | 4.0 | 8.0 | 0.00 | 0.00 | 0.00 | 83 | 1014.7 |
| 20260505212223 | 45 | 337 | 4.0 | 7.0 | 0.00 | 0.00 | 0.00 | 82 | 1014.8 |
| 20260505211003 | 45 | 336 | 4.0 | 9.0 | 0.00 | 0.00 | 0.00 | 82 | 1014.6 |
| 20260505210008 | 46 | 339 | 5.0 | 9.0 | 0.00 | 0.00 | 0.00 | 82 | 1014.5 |
| 20260505205008 | 46 | 343 | 4.0 | 8.0 | 0.00 | 0.00 | 0.00 | 81 | 1014.5 |
| 20260505204003 | 46 | 339 | 4.0 | 8.0 | 0.00 | 0.00 | 0.00 | 82 | 1014.6 |
| 20260505203003 | 46 | 337 | 4.0 | 8.0 | 0.00 | 0.00 | 0.00 | 83 | 1014.6 |
| 20260505202008 | 46 | 339 | 4.0 | 9.0 | 0.00 | 0.00 | 0.00 | 83 | 1014.7 |
| 20260505201008 | 46 | 339 | 4.0 | 10.0 | 0.00 | 0.00 | 0.00 | 83 | 1014.6 |
| 20260505200222 | 47 | 341 | 4.0 | 9.0 | 0.00 | 0.00 | 0.00 | 83 | 1014.5 |
| 20260505195003 | 47 | 343 | 4.0 | 7.0 | 0.00 | 0.00 | 0.00 | 83 | 1014.4 |
| 20260505194008 | 47 | 340 | 4.0 | 7.0 | 0.00 | 0.00 | 0.00 | 82 | 1014.2 |
| 20260505193013 | 47 | 340 | 4.0 | 9.0 | 0.00 | 0.00 | 0.00 | 82 | 1014.3 |
| 20260505192003 | 47 | 338 | 4.0 | 8.0 | 0.00 | 0.00 | 0.00 | 82 | 1014.3 |
| 20260505191009 | 47 | 336 | 4.0 | 7.0 | 0.00 | 0.00 | 0.00 | 81 | 1014.3 |
| 20260505190222 | 47 | 342 | 4.0 | 8.0 | 0.00 | 0.00 | 0.00 | 80 | 1014.1 |
| 20260505185008 | 47 | 343 | 4.0 | 8.0 | 0.00 | 0.00 | 0.00 | 79 | 1014.2 |
| 20260505184003 | 47 | 338 | 4.0 | 8.0 | 0.00 | 0.00 | 0.00 | 78 | 1014.2 |
| 20260505183009 | 48 | 340 | 4.0 | 7.0 | 0.00 | 0.00 | 0.00 | 77 | 1014.1 |
| 20260505182008 | 48 | 342 | 4.0 | 7.0 | 0.00 | 0.00 | 0.00 | 78 | 1014.0 |
| 20260505181222 | 48 | 346 | 4.0 | 9.0 | 0.00 | 0.00 | 0.00 | 77 | 1014.0 |
| 20260505180218 | 48 | 345 | 4.0 | 9.0 | 0.00 | 0.00 | 0.00 | 77 | 1013.9 |
| 20260505175008 | 49 | 342 | 4.0 | 6.0 | 0.00 | 0.00 | 0.00 | 76 | 1014.0 |
| 20260505174003 | 49 | 337 | 4.0 | 9.0 | 0.00 | 0.00 | 0.00 | 77 | 1014.1 |
| 20260505173003 | 49 | 336 | 4.0 | 10.0 | 0.00 | 0.00 | 0.00 | 75 | 1014.1 |
| 20260505172008 | 49 | 336 | 4.0 | 8.0 | 0.00 | 0.00 | 0.00 | 77 | 1014.2 |